Location: Cajon Junction
(34.3117°N, 117.4748°W)
Time: 05:18:54
(UTC+00:00)

CZ-3 R/B - Pass Details

Date: 18 April 2024
Orbit: 492 x 10075 km, 28.3° (Epoch: 28 May)

Event Time Altitude Azimuth Distance (km) Brightness Sun altitude
Exits shadow 12:30:02 10° 247° (WSW) 8,461 5.6 -9.5°
Maximum altitude 12:51:29 55° 176° (S) 2,071 3.1 -5.3°
Drops below altitude 10° 12:57:51 10° 99° (E) 2,760 5.1 -4.1°
Sets 12:59:35 0° 94° (E) 3,371 6.0 -3.7°
